Weather in Keres

Russia / Komi Republic     61°52′05″N   52°40′12″E
temp.,
°C
wind,
m/s
gust,
m/s
humid.,
%
clouds,
%
prec.,
mm/h
press.,
hPa
HPBL,
m
22 april, thu
thu2200:00+7s51260100 0.1 10211109
03:00+7s51260100 0.1 10201109
06:00+4s61387100 0.0 1019903
09:00+4s51295100 0.3 1019884
12:00+3s51295100 0.4 1019852
15:00+4s51192100 0.4 1020832
18:00+4s51189100 0.0 1020868
21:00+4s41188100 0.0 1020686
23 april, fri
fri2300:00+5ssw51181100 0.0 1020829
03:00+5s4118693 0.1 1020740
06:00+5ssw488798 0.0 1021827
09:00+7sw3873100 0.0 10221122
12:00+10wsw4756100 0.0 10221567
15:00+11wsw375581 0.0 10231492
18:00+10ssw226139 0.0 102343
21:00+6s3118033 0.0 1025296
24 april, sat
sat2400:00+4s279290 0.0 1024139
03:00+3sse279164 0.0 1025115
06:00+6se38776 0.0 1024242
09:00+10se465591 0.0 10231547
12:00+9se465476 0.0 10221220
15:00+12se474273 0.0 10202015
18:00+10se3752100 0.0 1018348
21:00+6ese2875100 0.0 1018204
25 april, sun
sun2500:00+5ese41180100 0.0 1016432
03:00+5e41182100 0.0 1014696
06:00+6e51278100 0.0 1013893
09:00+5ese51295100 0.2 10111015
12:00+6ese51180100 0.1 10101053
15:00+7ese61174100 0.6 10081264
18:00+5ese51094100 0.3 10071108
21:00+4ese4996100 0.9 10051073
26 april, mon
mon2600:00+4ese3797100 0.9 1003932
03:00+3s4796100 2.3 1003594
06:00+2ssw488879 0.3 1004677
09:00+3sse3776100 0.4 10051143
12:00+5s577277 0.4 10041233
15:00+3s4888100 0.9 1004783
18:00+2s3797100 0.8 1003560
21:00+1ssw2698100 1.2 1002437